Find Starlink 32661

NORAD ID: 62899 Int'l Des: 2025-024 Owner: SPXS Country: US Constellation: starlink operational
LEOCIRCULAR

現在のビュー

3D地球を読み込み中...

About Starlink 32661

Starlink 32661 (NORAD 62899) is a starlink constellation satellite (v2 mini) launched Feb 4, 2025 by SPXS of US. It operates in LEO, CIRCULAR orbit with a mass of 730.00 kg.

Starlink 32661について

説明を読み込み中...

次回通過

Passes for default location (London). Set your location on the main map for personalized predictions.

高度履歴

Loading altitude history...

軌道要素

1 62899U 25024W 26171.19627939 .00014854 00000-0 54810-3 0 9993
2 62899 43.0019 106.4044 0001031 272.1424 87.9310 15.27586873 77946
Epoch: Jun 20, 2026 • Age: 40 hours

現在のステータス

高度 495.4 km
速度 7.62 km/s
衛星直下点 -42.78°S, 131.17°E
打ち上げ日 Feb 4, 2025
運用期間 1.3 years
タイプ internet

技術仕様

分類 Payload
質量 730.00 kg
乾燥質量 700.00 kg
総質量 730.00 kg
長さ 0.30 m
直径 4.10 m
スパン 29.00 m
形状 Box + pan
製造者 SPXS
バスタイプ Starlink V2M
フェーズステータス In Orbit
所有者/国 SPXS/US

Most Searched